User: anonymous
Location: Unspecified
(0.0000°N, 0.0000°E)
Time: 01:41:04
(UTC+02:00)
Language:

AO-7 - Orbit

View from above orbital plane
View from above orbital plane
View from above satellite
View from above satellite

Ground track
Ground track

The orbit data is extracted from the following two-line orbital elements,

1 07530U 74089B   14244.60317950 -.00000025  00000-0  11763-3 0   517
2 07530 101.4803 223.9406 0012191 143.9735 345.6214 12.53606636821099
Epoch (UTC): 01 September 2014 14:28:34
Eccentricity: 0.0012191
inclination: 101.4803°
perigee height: 1440 km
apogee height: 1459 km
right ascension of ascending node: 223.9406°
argument of perigee: 143.9735°
revolutions per day: 12.53606636
mean anomaly at epoch: 345.6214°
orbit number at epoch: 82109

The dashed part of the orbit path shows where the satellite is in the earth's shadow,  

DLR